Temp
12 14 16 17 18 18 19 20 22 23 23 23 25 25 25 26 29 27 33 35 34 34 32 34 34 36 38 39 41 41 38 37 38 36 35 37 35 34 34 31 31 30 26 24 24
13 13 14 16 17 19 19 20 22 23 23 23 25 25 25 25 25 32 35 35 35 34 33 37 39 40 40 41 35 37 39 38 39 38 37 37 36 34 31 30 28 27 25 25 24
12 13 15 15 16 17 19 20 21 23 24 24 25 25 25 26 30 38 34 34 35 34 33 36 38 40 40 42 31 39 38 39 38 38 38 36 36 37 33 30 28 26 25 25 25
12 13 14 16 16 17 18 20 21 22 23 24 24 25 26 26 34 35 35 34 34 33 34 36 39 39 40 40 41 39 40 39 38 38 37 36 37 35 34 31 30 27 27 26 26
11 12 14 15 17 18 19 20 21 22 23 24 24 25 25 31 34 35 35 34 34 33 35 38 39 40 40 41 40 39 39 39 39 38 38 37 35 33 32 31 29 27 27 27 26
11 11 12 14 16 18 19 20 21 22 23 24 24 25 25 31 36 36 35 36 35 36 37 38 39 41 41 38 37 39 39 39 38 38 37 35 35 33 32 31 28 27 27 27 27
11 11 12 13 16 17 19 20 21 22 23 24 25 22 29 32 36 37 36 37 37 37 39 39 40 40 41 41 38 37 39 38 38 38 37 38 35 32 31 31 28 28 28 27 28
11 11 11 12 15 17 19 21 21 22 23 24 24 22 29 33 34 35 36 37 37 38 38 39 40 40 40 35 36 31 31 33 39 39 38 38 33 33 32 31 30 29 28 28 28
10 11 11 12 15 17 19 21 22 23 22 22 22 25 31 34 34 35 36 37 38 38 38 39 39 39 39 36 30 25 25 29 35 40 39 39 35 34 34 33 31 30 29 28 28
10 11 11 13 14 17 19 23 23 22 22 22 25 29 32 35 36 36 36 37 38 39 39 38 38 38 39 39 31 28 29 30 32 39 40 39 36 35 35 35 33 32 31 31 30
10 10 11 13 16 17 18 20 26 25 25 30 33 32 35 35 37 37 37 37 38 38 37 38 37 37 39 38 32 34 36 35 38 41 39 34 36 36 36 37 35 34 32 32 32
10 10 11 12 16 18 18 25 28 27 27 31 31 33 34 37 36 37 38 37 37 36 38 38 37 39 41 41 36 35 35 39 40 41 40 39 37 37 37 37 37 36 34 33 33
9 10 11 13 17 19 22 25 25 26 27 30 32 33 34 36 36 37 38 38 37 36 37 37 39 40 41 40 39 40 41 40 39 40 41 40 38 37 38 38 38 38 36 36 35
9 10 10 12 18 18 22 24 25 26 26 30 33 34 35 36 35 37 38 38 37 37 38 38 40 40 40 40 40 40 41 41 40 40 38 41 37 38 38 38 38 38 37 37 36
9 9 10 12 12 18 21 22 24 26 26 36 36 37 36 35 36 36 39 38 37 37 38 38 39 40 40 41 41 40 42 41 41 40 40 40 38 39 39 38 38 39 38 37 37
9 9 9 13 15 18 20 22 24 25 26 34 38 36 35 35 35 38 37 38 38 38 39 39 41 41 41 41 41 42 41 41 40 40 38 40 39 38 39 39 39 39 39 39 38
9 10 9 10 14 17 18 22 24 25 32 34 35 36 35 35 35 36 36 36 36 35 36 38 39 41 42 41 41 41 40 37 37 37 38 41 39 39 41 41 41 40 40 40 39
10 10 10 12 14 17 19 21 22 29 30 36 37 36 35 36 35 36 36 35 36 37 37 36 36 40 41 40 40 40 40 38 35 37 39 41 39 40 43 43 42 42 41 40 40
9 12 15 17 17 17 19 20 23 29 32 34 38 35 35 36 36 36 36 36 37 38 36 37 37 40 41 41 41 40 39 41 39 41 40 40 41 42 43 42 42 42 42 41 40
9 12 15 17 18 20 19 19 24 29 32 34 34 37 35 35 36 36 36 37 37 38 39 39 37 40 41 41 41 40 41 38 39 36 36 40 40 40 41 42 42 42 42 41 40
10 16 19 20 19 20 19 20 22 26 30 31 33 35 37 36 37 36 36 38 38 38 39 39 39 39 40 39 39 39 40 40 40 40 38 37 38 42 41 42 42 42 43 42 41
14 15 19 18 19 19 19 20 21 25 28 29 31 32 36 37 37 37 37 38 39 39 38 39 39 38 39 41 41 40 39 40 39 37 40 39 40 44 43 43 43 43 43 43 42
14 17 18 18 16 18 20 21 22 23 25 27 30 32 35 35 36 37 38 40 40 39 39 39 38 37 38 40 40 39 40 40 40 40 38 38 39 43 43 43 43 43 43 42 42
13 13 14 18 19 19 20 21 22 24 25 27 29 31 33 33 35 36 38 39 40 40 35 37 38 37 38 39 40 38 39 40 40 39 39 40 40 42 42 42 42 42 41 41 40
13 11 10 11 12 16 20 21 23 23 25 27 27 30 32 32 34 36 38 39 40 38 37 39 36 38 39 41 41 40 39 40 40 40 39 41 41 40 41 42 42 42 40 40 39
9 10 13 14 14 15 19 19 20 25 26 26 27 30 31 32 34 35 37 38 38 40 39 40 36 37 38 39 40 40 40 40 40 40 40 41 41 43 41 42 42 41 40 39 39
11 12 13 14 15 17 19 20 22 24 27 28 29 29 30 32 31 32 35 38 39 39 38 37 37 36 36 38 39 38 40 40 40 41 41 40 41 43 42 42 41 40 40 39 38
Height
810 807 804 801 799 796 793 790 787 784 781 777 774 770 766 763 759 757 751 747 746 745 745 743 738 732 724 719 708 704 741 748 743 749 757 740 751 752 758 772 776 778 796 808 816
810 807 805 802 799 796 793 790 786 783 781 778 774 770 767 763 758 751 745 745 744 744 744 737 727 719 715 710 730 731 734 742 729 736 745 739 749 756 769 779 790 792 802 810 816
810 807 804 801 798 795 793 790 787 783 780 777 774 770 767 764 757 737 740 742 743 743 742 738 729 720 719 702 739 717 738 729 731 730 736 747 749 739 758 783 788 798 803 809 816
810 806 803 800 796 793 791 788 786 783 780 776 774 770 768 767 770 740 741 742 742 742 743 737 724 722 719 721 711 732 723 728 733 731 739 747 743 756 758 772 781 794 801 808 813
811 807 802 799 795 791 788 786 783 781 779 775 773 770 768 761 747 741 740 740 740 741 740 734 726 717 721 715 718 729 731 729 729 734 739 743 759 767 772 775 787 797 802 807 813
813 808 803 798 794 790 786 783 781 779 776 774 772 770 769 766 739 738 739 739 739 738 736 732 724 714 716 725 742 729 731 736 737 740 742 756 761 768 777 778 791 799 802 805 810
813 809 804 799 793 789 784 781 778 776 774 772 770 770 763 747 736 734 736 736 734 734 731 728 721 719 712 723 727 732 743 741 740 739 746 741 767 781 778 783 795 797 801 805 808
813 809 804 798 793 787 782 778 775 772 771 770 769 770 756 739 738 735 734 733 732 729 729 726 722 721 723 723 738 764 768 779 740 734 738 740 788 774 774 783 790 795 800 804 806
812 808 803 797 792 786 780 774 771 769 768 768 768 765 749 730 730 729 730 729 728 727 727 726 724 727 727 745 775 807 830 796 766 723 733 740 775 768 768 777 788 793 797 801 804
812 807 801 795 790 785 777 770 766 764 765 768 764 765 734 723 721 723 725 726 724 723 725 727 730 736 729 736 802 820 812 798 786 739 729 743 759 763 761 766 779 784 788 790 796
811 806 800 794 788 784 775 768 763 762 760 744 734 732 716 715 713 715 719 722 722 723 741 728 745 750 731 732 769 759 770 775 749 723 735 766 759 758 756 757 767 774 781 783 786
810 806 800 793 786 781 779 770 761 765 758 735 732 725 718 712 717 711 713 723 727 739 729 737 749 724 713 717 746 755 757 747 730 722 731 738 751 749 750 751 755 763 773 776 779
810 805 800 792 784 779 776 770 767 764 758 730 719 716 715 710 714 710 708 713 725 734 730 740 728 712 714 721 732 725 724 732 740 729 723 730 751 752 746 743 745 751 759 764 771
810 806 801 794 785 781 773 769 769 766 765 726 705 699 703 705 713 700 700 708 719 729 724 728 707 715 716 724 720 734 715 719 729 742 762 727 778 749 745 749 746 749 755 759 764
810 806 802 800 795 784 776 774 771 765 780 682 676 672 684 701 697 700 692 702 719 718 720 727 717 716 722 715 708 724 702 717 726 737 739 740 762 748 736 753 748 743 747 751 757
809 805 802 797 792 785 780 775 771 777 760 692 655 679 691 693 699 689 696 694 699 710 708 710 692 698 705 698 701 701 716 719 726 736 766 737 749 758 743 741 737 733 737 741 750
806 803 801 799 789 785 783 776 775 759 703 690 680 676 687 695 700 693 705 709 717 736 728 714 707 693 689 709 702 711 730 768 780 775 772 718 744 739 717 715 719 726 729 733 740
802 798 792 790 787 785 783 779 765 710 704 661 663 676 689 684 692 694 700 710 703 707 719 731 741 701 689 703 720 720 725 756 794 778 754 717 747 733 700 697 701 707 715 723 733
799 791 783 777 778 780 779 768 730 705 687 677 657 679 687 678 683 691 688 699 694 691 719 720 725 689 687 689 700 720 734 713 740 724 742 732 717 702 696 701 702 704 708 718 724
799 790 773 769 769 770 768 750 723 699 679 673 683 662 684 680 683 686 684 677 686 682 678 693 727 691 689 686 693 705 701 747 734 775 778 739 734 735 713 710 705 706 706 709 715
796 777 760 755 762 758 748 741 733 709 689 690 682 669 662 669 668 674 677 669 669 677 675 681 694 704 690 704 716 716 720 720 723 731 758 766 747 688 699 697 702 699 699 702 707
787 776 757 759 757 749 746 741 734 715 697 696 683 670 655 651 662 665 670 661 652 661 684 673 687 708 700 680 684 696 712 713 739 751 726 729 732 667 678 684 686 692 692 693 698
784 767 759 760 758 746 740 734 728 723 708 701 687 666 649 657 663 651 650 639 644 657 669 670 691 711 705 689 683 702 699 702 706 713 734 746 734 670 675 682 684 690 691 693 696
790 774 768 752 744 739 732 727 724 713 709 697 686 669 663 664 646 649 643 633 633 642 656 663 680 694 708 692 686 709 700 695 704 727 725 720 715 695 688 691 690 690 691 695 698
785 784 788 775 763 749 729 722 713 710 699 697 690 675 667 674 657 646 633 634 628 636 649 658 691 681 677 668 674 688 697 692 703 701 719 705 705 704 691 689 687 688 691 698 704
798 790 778 764 762 750 725 725 717 694 694 694 690 673 667 669 656 651 637 634 639 632 644 648 684 681 689 672 669 683 684 687 689 692 696 692 694 672 672 671 682 687 691 700 705
795 789 780 761 754 740 727 719 707 695 677 677 678 678 673 663 658 646 632 621 625 634 646 657 670 689 704 680 679 694 676 680 683 679 686 704 684 667 675 677 681 685 690 698 702
Wind_Speed
23 22 21 21 21 21 21 20 20 19 19 20 19 18 19 21 20 10 10 2 6 8 5 11 12 18 19 18 19 13 4 10 13 16 11 8 17 19 17 14 8 13 20 24 27
26 25 24 23 21 21 22 21 20 19 19 20 19 18 19 21 18 17 16 11 8 8 8 15 16 14 14 17 8 9 10 13 14 12 8 12 12 20 18 17 16 21 25 28 29
28 27 26 25 24 23 21 22 21 19 19 20 19 18 18 19 10 15 5 11 12 11 13 18 20 19 20 14 20 5 14 14 14 14 14 11 9 7 20 14 19 22 23 24 26
30 29 28 27 26 25 24 22 21 20 20 20 19 18 16 7 7 7 1 5 10 12 14 18 21 21 23 2 10 18 16 15 14 11 14 11 11 18 17 19 20 21 23 25 18
29 30 29 28 27 26 25 24 21 20 20 20 18 16 9 9 19 13 2 4 8 10 15 15 19 19 14 8 9 16 15 13 14 14 12 17 16 16 17 22 22 21 18 17 15
28 30 31 30 29 27 27 25 22 21 20 19 16 11 6 17 24 8 7 8 10 15 17 16 19 14 14 28 3 1 15 14 14 11 17 16 17 14 14 22 21 19 17 17 18
29 30 31 32 30 28 27 26 24 21 19 16 12 7 12 20 15 11 14 17 16 17 15 18 19 15 15 6 22 19 16 13 13 13 16 17 18 15 17 18 16 15 15 14 14
30 31 33 34 32 29 28 26 24 20 16 12 8 6 10 17 26 24 14 18 20 17 18 21 13 14 14 21 18 29 10 3 10 14 8 14 12 17 18 16 15 17 15 13 15
30 31 33 35 33 29 29 27 23 18 12 7 6 9 16 6 23 23 26 20 20 18 18 18 11 16 12 13 11 12 8 17 15 9 15 8 17 18 18 15 15 15 15 14 14
30 32 34 36 34 28 29 25 17 16 8 8 16 10 22 19 18 24 24 22 17 15 16 14 11 14 15 12 5 15 20 14 17 9 8 17 18 17 18 18 15 16 15 16 17
29 31 34 36 31 27 28 11 5 6 13 15 12 16 22 23 19 20 25 22 20 17 18 19 14 16 21 19 25 28 14 25 19 12 5 4 17 18 16 15 17 16 15 14 15
29 31 33 37 30 22 14 7 10 9 11 18 27 25 31 16 11 14 24 22 21 20 20 19 19 21 20 14 28 9 24 14 15 9 2 14 20 18 17 15 17 17 17 17 17
28 30 33 35 24 12 12 16 10 15 9 20 25 26 25 23 17 18 22 24 24 23 22 22 22 24 20 16 18 20 13 7 11 9 8 9 19 18 17 14 16 17 17 17 17
26 29 31 35 13 20 12 9 12 13 7 16 23 28 28 25 23 24 29 24 21 25 26 22 25 23 22 16 15 16 11 6 10 7 6 12 6 15 19 15 17 17 17 17 17
25 26 28 21 22 12 18 16 15 12 7 10 29 15 30 31 12 26 25 25 27 23 22 25 25 24 22 19 17 12 11 13 7 6 9 15 5 12 19 17 17 18 19 19 18
25 25 26 17 13 18 21 19 13 7 15 9 11 26 28 30 31 21 24 25 25 24 26 27 26 24 22 13 16 11 8 4 2 9 10 13 7 8 17 16 19 20 20 20 19
25 26 25 20 14 17 15 11 7 13 14 15 22 23 25 28 30 27 29 28 25 25 25 28 30 26 24 20 19 20 16 6 8 10 11 12 12 9 17 19 18 18 21 20 20
26 28 25 24 22 19 15 10 15 17 29 12 21 21 25 28 29 31 29 26 31 27 19 21 24 29 24 20 20 21 18 11 10 11 13 6 7 7 16 15 19 19 20 21 21
25 22 23 22 20 17 9 15 15 23 30 29 20 23 23 28 25 30 29 29 31 31 27 22 27 27 27 18 22 22 19 15 20 17 9 8 6 17 17 17 13 20 21 21 20
18 23 29 24 21 21 12 26 22 23 28 25 30 21 22 27 30 31 30 30 31 34 28 20 17 25 28 16 23 23 16 18 14 17 14 10 13 10 15 13 12 10 18 21 21
15 6 20 6 24 11 18 25 25 34 29 26 24 28 23 26 29 24 32 25 32 34 29 30 20 21 23 22 25 18 20 16 19 15 14 5 9 14 16 14 14 17 12 18 21
16 10 7 9 10 12 17 26 26 31 30 28 26 30 25 23 27 31 34 31 30 31 34 29 16 16 30 25 26 24 23 22 13 19 14 10 11 14 17 15 12 9 7 13 20
7 10 22 10 13 15 20 27 28 30 32 29 30 28 20 21 21 29 30 31 27 32 30 25 21 14 20 24 24 27 25 24 20 18 17 11 2 17 16 14 12 10 9 8 11
6 4 6 7 15 20 21 24 26 30 32 31 29 28 20 21 23 21 29 29 32 31 26 25 22 17 16 18 20 23 25 27 25 16 17 17 8 6 13 12 11 5 12 9 7
4 1 2 6 12 20 21 22 23 28 29 28 28 29 22 20 22 23 23 28 27 28 26 25 23 22 23 20 25 24 26 25 25 21 19 18 15 14 11 10 13 12 14 11 9
4 5 4 12 13 22 9 13 23 21 27 28 27 24 21 22 21 16 18 21 23 27 22 27 20 21 24 25 21 28 28 27 26 25 23 23 17 19 19 17 11 14 15 11 11
15 20 8 13 13 13 7 15 14 21 21 27 23 18 22 15 17 19 20 20 20 21 22 22 18 19 20 24 23 21 27 28 25 25 24 20 17 12 8 9 12 14 14 14 12
Wind_Direction
11 10 7 5 1 358 354 351 346 344 343 342 342 334 331 326 316 301 261 298 244 266 248 261 238 248 247 251 251 300 243 59 48 94 118 132 88 88 81 97 96 93 129 136 139
7 5 3 0 357 351 349 347 343 337 336 338 337 330 327 327 315 270 260 245 262 262 235 243 285 293 269 260 34 295 85 67 83 99 90 103 118 129 123 118 97 111 121 141 143
5 2 359 355 352 349 346 342 339 333 330 331 332 327 323 329 281 262 216 213 245 258 256 288 290 278 275 277 148 85 89 96 85 96 97 106 143 167 125 129 134 140 137 145 151
2 359 356 352 348 344 341 338 334 329 326 325 326 321 318 316 272 92 173 263 255 245 254 274 277 271 255 127 48 89 86 106 118 126 101 117 89 61 92 122 129 142 144 148 156
0 357 353 350 345 340 335 332 329 325 322 319 319 318 327 244 250 256 252 309 258 222 242 264 285 303 317 82 134 96 95 102 96 97 119 91 87 88 91 108 125 142 149 151 147
358 355 352 348 344 337 331 327 324 321 318 314 310 307 263 260 257 194 240 241 250 223 244 252 272 315 302 114 206 46 105 108 108 122 109 124 123 110 112 120 134 146 161 159 164
354 352 349 346 342 336 328 323 319 315 314 308 300 293 262 246 285 256 237 245 255 242 240 252 260 292 279 167 147 219 125 134 151 150 151 143 110 114 130 133 145 152 161 162 175
350 348 346 343 340 333 325 318 313 306 304 297 279 260 260 255 249 257 245 250 241 245 250 258 295 277 301 321 83 37 15 342 154 145 159 224 115 132 143 147 151 154 162 168 175
347 344 342 341 338 333 322 314 304 295 286 273 255 217 261 241 233 238 234 234 231 237 244 250 277 264 165 226 75 56 309 282 280 148 166 166 129 145 155 153 157 163 169 173 186
344 341 339 337 337 333 320 312 290 282 264 240 257 273 244 243 224 226 225 227 232 222 231 229 247 249 243 235 80 168 195 229 250 172 241 123 129 152 173 160 163 167 172 177 177
342 340 336 334 333 330 325 336 225 200 231 225 213 213 293 205 224 219 213 211 225 225 221 220 231 234 241 141 181 237 227 206 221 171 133 324 146 155 177 173 162 165 169 183 174
340 338 336 332 329 320 302 272 29 331 291 251 247 260 261 244 208 224 207 203 209 216 217 224 223 230 242 181 174 123 251 175 138 160 239 169 152 157 174 186 164 168 169 177 175
337 336 335 332 325 313 293 291 325 320 275 267 243 240 233 247 233 210 214 202 206 215 212 219 216 233 234 208 212 232 210 118 128 168 242 171 151 153 172 180 159 170 167 175 171
333 333 335 336 310 328 293 19 326 319 275 257 222 231 228 230 223 239 201 206 212 214 216 217 231 219 236 221 211 243 105 212 134 218 215 199 171 166 164 181 166 169 167 176 169
328 328 330 331 298 298 341 333 319 283 267 233 216 189 200 206 203 213 214 205 214 208 214 214 228 220 232 223 200 247 193 169 208 260 242 186 194 178 164 181 178 176 172 177 175
323 323 323 326 293 278 295 300 291 230 233 255 169 183 187 201 216 196 216 204 216 219 217 226 219 233 220 222 235 221 265 54 249 258 250 240 145 187 173 180 179 182 174 173 177
319 316 307 289 273 301 320 292 217 228 221 231 157 183 190 195 204 220 198 194 208 218 215 216 230 222 233 225 206 233 211 196 224 231 242 229 174 154 184 176 180 177 173 176 169
317 311 291 270 266 269 269 249 230 211 231 217 181 194 205 200 202 213 192 201 211 212 216 211 218 225 220 223 215 225 230 230 217 227 234 200 166 138 160 168 175 173 176 173 177
323 308 282 264 242 230 231 224 221 232 199 244 198 189 205 211 198 205 204 208 200 211 216 205 219 219 217 197 230 215 230 244 246 246 268 166 180 158 158 161 168 176 172 174 176
316 302 276 252 236 212 225 234 229 240 256 225 250 203 208 207 201 204 214 201 205 210 217 225 212 219 216 197 222 238 212 228 247 261 273 235 189 207 167 160 171 195 178 172 172
300 278 284 279 210 216 229 234 238 263 267 268 273 259 219 203 214 205 216 201 209 202 214 228 212 209 218 201 217 217 236 215 241 241 245 188 256 194 164 177 196 188 195 174 175
285 276 324 242 218 228 237 239 254 260 263 264 279 281 249 221 209 217 211 208 198 208 208 223 228 222 210 200 212 212 222 230 224 242 264 293 309 158 162 175 180 168 202 190 176
282 289 275 231 254 234 246 242 245 248 256 265 268 272 262 271 243 217 218 208 210 208 201 211 232 227 222 204 194 218 219 223 228 237 248 247 176 155 165 156 155 165 175 181 182
287 286 313 254 244 260 252 242 233 242 253 261 263 273 254 260 266 251 217 218 203 203 213 207 226 233 226 215 186 202 221 212 224 220 236 235 157 185 147 134 146 183 152 181 171
292 159 236 319 318 310 252 266 244 233 238 247 259 256 251 251 255 250 220 210 207 210 197 208 217 230 238 233 198 199 220 218 217 218 228 234 185 202 153 177 164 182 149 166 168
296 333 254 292 273 274 273 270 274 241 228 230 242 248 251 251 262 257 236 219 221 202 198 205 213 226 230 242 234 204 204 224 214 227 237 237 250 170 175 174 174 170 147 157 167
318 324 310 295 289 302 289 259 250 271 226 231 232 244 252 278 338 316 312 254 222 214 189 204 212 205 227 236 245 241 205 205 228 215 228 236 247 256 139 156 162 139 154 170 171